Time,TemperatureF,DewpointF,PressureIn,WindDirection,WindDirectionDegrees,WindSpeedMPH,WindSpeedGustMPH,Humidity,HourlyPrecipIn,Conditions,Clouds,dailyrainin,SoftwareType,DateUTC
2013-09-07 00:00:00,48.2,41.0,30.12,ESE,104,0.0,0.0,78,0.00,,,-99.99,wx200d/1.3,2013-09-06 12:00:00,
2013-09-07 00:05:00,48.2,41.0,30.12,ESE,105,0.0,0.0,78,0.00,,,-99.99,wx200d/1.3,2013-09-06 12:05:00,
2013-09-07 00:10:00,48.2,41.0,30.12,ESE,104,0.0,0.0,78,0.00,,,-99.99,wx200d/1.3,2013-09-06 12:10:00,
2013-09-07 00:15:00,48.2,41.0,30.12,ESE,105,0.0,0.0,78,0.00,,,-99.99,wx200d/1.3,2013-09-06 12:15:00,
2013-09-07 00:20:00,48.2,41.0,30.12,ESE,105,0.0,0.0,78,0.00,,,-99.99,wx200d/1.3,2013-09-06 12:20:00,
2013-09-07 00:25:00,48.4,41.0,30.12,ESE,105,0.0,0.0,78,0.00,,,-99.99,wx200d/1.3,2013-09-06 12:25:00,
2013-09-07 00:30:00,48.4,41.0,30.12,ESE,104,2.7,3.1,78,0.00,,,-99.99,wx200d/1.3,2013-09-06 12:30:00,
2013-09-07 00:35:00,48.0,41.0,30.12,ESE,121,4.0,4.9,78,0.00,,,-99.99,wx200d/1.3,2013-09-06 12:35:00,
2013-09-07 00:40:00,47.8,41.0,30.12,SE,129,0.0,0.0,78,0.00,,,-99.99,wx200d/1.3,2013-09-06 12:40:00,
2013-09-07 00:45:00,47.8,43.0,30.12,SE,129,0.0,0.0,79,0.00,,,-99.99,wx200d/1.3,2013-09-06 12:45:00,
2013-09-07 00:50:00,48.0,43.0,30.12,SE,129,0.0,0.0,79,0.00,,,-99.99,wx200d/1.3,2013-09-06 12:50:00,
2013-09-07 00:55:00,48.0,43.0,30.12,SE,129,0.0,0.0,80,0.00,,,-99.99,wx200d/1.3,2013-09-06 12:55:00,
2013-09-07 01:00:00,48.0,43.0,30.12,SE,129,0.0,0.0,80,0.00,,,-99.99,wx200d/1.3,2013-09-06 13:00:00,
2013-09-07 01:05:00,47.8,43.0,30.12,SE,129,0.0,0.0,79,0.00,,,-99.99,wx200d/1.3,2013-09-06 13:05:00,
2013-09-07 01:10:00,47.8,43.0,30.12,SE,129,2.7,2.7,80,0.00,,,-99.99,wx200d/1.3,2013-09-06 13:10:00,
2013-09-07 01:15:00,48.0,43.0,30.12,SE,129,0.0,0.0,80,0.00,,,-99.99,wx200d/1.3,2013-09-06 13:15:00,
2013-09-07 01:20:00,48.0,43.0,30.12,SE,129,0.0,0.0,80,0.00,,,-99.99,wx200d/1.3,2013-09-06 13:20:00,
2013-09-07 01:25:00,48.0,43.0,30.12,SE,129,0.0,0.0,80,0.00,,,-99.99,wx200d/1.3,2013-09-06 13:25:00,
2013-09-07 01:30:00,48.0,43.0,30.12,SE,129,0.0,0.0,80,0.00,,,-99.99,wx200d/1.3,2013-09-06 13:30:00,
2013-09-07 01:35:00,48.0,43.0,30.12,SE,129,0.0,0.0,80,0.00,,,-99.99,wx200d/1.3,2013-09-06 13:35:00,
2013-09-07 01:40:00,48.0,43.0,30.12,SE,129,0.0,0.0,80,0.00,,,-99.99,wx200d/1.3,2013-09-06 13:40:00,
2013-09-07 01:45:00,48.0,43.0,30.12,SE,129,0.0,0.0,80,0.00,,,-99.99,wx200d/1.3,2013-09-06 13:45:00,
2013-09-07 01:50:00,48.0,43.0,30.12,SE,129,0.0,0.0,81,0.00,,,-99.99,wx200d/1.3,2013-09-06 13:50:00,
2013-09-07 01:55:00,47.8,43.0,30.12,SE,129,0.0,0.0,81,0.00,,,-99.99,wx200d/1.3,2013-09-06 13:55:00,
2013-09-07 02:00:00,48.0,43.0,30.12,SE,129,0.0,0.0,81,0.00,,,-99.99,wx200d/1.3,2013-09-06 14:00:00,
2013-09-07 02:05:00,48.2,43.0,30.12,SE,129,0.0,0.0,82,0.00,,,-99.99,wx200d/1.3,2013-09-06 14:05:00,
2013-09-07 02:10:00,48.4,43.0,30.12,SE,129,0.0,0.0,82,0.00,,,-99.99,wx200d/1.3,2013-09-06 14:10:00,
2013-09-07 02:15:00,48.4,43.0,30.12,SE,129,0.0,0.0,82,0.00,,,-99.99,wx200d/1.3,2013-09-06 14:15:00,
2013-09-07 02:20:00,48.4,43.0,30.12,SE,129,0.0,0.0,82,0.00,,,-99.99,wx200d/1.3,2013-09-06 14:20:00,
2013-09-07 02:25:00,48.6,43.0,30.09,SE,129,0.0,0.0,82,0.00,,,-99.99,wx200d/1.3,2013-09-06 14:25:00,
2013-09-07 02:30:00,48.6,43.0,30.09,SE,129,0.0,0.0,81,0.00,,,-99.99,wx200d/1.3,2013-09-06 14:30:00,
2013-09-07 02:35:00,48.6,43.0,30.09,SE,129,0.0,0.0,81,0.00,,,-99.99,wx200d/1.3,2013-09-06 14:35:00,
2013-09-07 02:40:00,48.6,43.0,30.09,SE,129,0.0,0.0,81,0.00,,,-99.99,wx200d/1.3,2013-09-06 14:40:00,
2013-09-07 02:45:00,48.4,43.0,30.09,SE,129,0.0,0.0,81,0.00,,,-99.99,wx200d/1.3,2013-09-06 14:45:00,
2013-09-07 02:50:00,48.4,43.0,30.09,SE,129,0.0,2.7,81,0.00,,,-99.99,wx200d/1.3,2013-09-06 14:50:00,
2013-09-07 02:55:00,48.4,43.0,30.09,SE,130,0.0,0.0,81,0.00,,,-99.99,wx200d/1.3,2013-09-06 14:55:00,
2013-09-07 03:00:00,48.4,43.0,30.09,SE,129,0.0,0.0,81,0.00,,,-99.99,wx200d/1.3,2013-09-06 15:00:00,
2013-09-07 03:05:00,48.7,43.0,30.09,SE,129,0.0,0.0,81,0.00,,,-99.99,wx200d/1.3,2013-09-06 15:05:00,
2013-09-07 03:10:00,48.9,43.0,30.09,SE,129,0.0,0.0,81,0.00,,,-99.99,wx200d/1.3,2013-09-06 15:10:00,
2013-09-07 03:15:00,49.1,45.0,30.09,WSW,242,0.0,4.0,81,0.00,,,-99.99,wx200d/1.3,2013-09-06 15:15:00,
2013-09-07 03:20:00,49.5,45.0,30.09,West,260,2.7,0.0,81,0.00,,,-99.99,wx200d/1.3,2013-09-06 15:20:00,
2013-09-07 03:25:00,49.6,45.0,30.09,WSW,258,0.0,0.0,81,0.00,,,-99.99,wx200d/1.3,2013-09-06 15:25:00,
2013-09-07 03:30:00,49.8,45.0,30.09,WSW,258,0.0,0.0,82,0.00,,,-99.99,wx200d/1.3,2013-09-06 15:30:00,
2013-09-07 03:35:00,49.8,45.0,30.09,WSW,258,0.0,0.0,82,0.00,,,-99.99,wx200d/1.3,2013-09-06 15:35:00,
2013-09-07 03:40:00,49.8,45.0,30.09,West,271,2.7,0.0,82,0.00,,,-99.99,wx200d/1.3,2013-09-06 15:40:00,
2013-09-07 03:45:00,49.8,45.0,30.09,West,271,0.0,3.1,82,0.00,,,-99.99,wx200d/1.3,2013-09-06 15:45:00,
2013-09-07 03:50:00,50.0,45.0,30.09,West,274,4.0,4.0,83,0.00,,,-99.99,wx200d/1.3,2013-09-06 15:50:00,
2013-09-07 03:55:00,50.2,45.0,30.09,WSW,258,4.5,4.5,84,0.00,,,-99.99,wx200d/1.3,2013-09-06 15:55:00,
2013-09-07 04:00:00,50.4,45.0,30.09,WSW,254,3.6,3.6,84,0.00,,,-99.99,wx200d/1.3,2013-09-06 16:00:00,
2013-09-07 04:05:00,50.5,46.0,30.09,WSW,255,3.6,0.0,85,0.00,,,-99.99,wx200d/1.3,2013-09-06 16:05:00,
2013-09-07 04:10:00,50.7,46.0,30.09,WSW,237,3.1,0.0,85,0.00,,,-99.99,wx200d/1.3,2013-09-06 16:10:00,
2013-09-07 04:15:00,50.7,46.0,30.09,WSW,237,3.1,0.0,85,0.00,,,-99.99,wx200d/1.3,2013-09-06 16:15:00,
2013-09-07 04:20:00,50.7,46.0,30.09,WSW,254,2.7,0.0,85,0.00,,,-99.99,wx200d/1.3,2013-09-06 16:20:00,
2013-09-07 04:25:00,50.7,46.0,30.09,West,261,0.0,0.0,85,0.00,,,-99.99,wx200d/1.3,2013-09-06 16:25:00,
2013-09-07 04:30:00,50.7,46.0,30.09,WSW,248,0.0,0.0,85,0.00,,,-99.99,wx200d/1.3,2013-09-06 16:30:00,
2013-09-07 04:35:00,50.5,46.0,30.09,WSW,248,0.0,0.0,85,0.00,,,-99.99,wx200d/1.3,2013-09-06 16:35:00,
2013-09-07 04:40:00,50.5,46.0,30.09,WSW,248,0.0,0.0,85,0.00,,,-99.99,wx200d/1.3,2013-09-06 16:40:00,
2013-09-07 04:45:00,50.5,46.0,30.09,WSW,248,0.0,0.0,85,0.00,,,-99.99,wx200d/1.3,2013-09-06 16:45:00,
2013-09-07 04:50:00,50.4,46.0,30.09,WSW,248,0.0,0.0,85,0.00,,,-99.99,wx200d/1.3,2013-09-06 16:50:00,
2013-09-07 04:55:00,50.4,46.0,30.09,WSW,248,0.0,0.0,85,0.00,,,-99.99,wx200d/1.3,2013-09-06 16:55:00,
2013-09-07 05:00:00,50.4,46.0,30.09,WSW,248,0.0,0.0,85,0.00,,,-99.99,wx200d/1.3,2013-09-06 17:00:00,
2013-09-07 05:05:00,50.2,46.0,30.09,WSW,248,0.0,0.0,85,0.00,,,-99.99,wx200d/1.3,2013-09-06 17:05:00,
2013-09-07 05:10:00,50.2,46.0,30.09,WSW,248,0.0,0.0,85,0.00,,,-99.99,wx200d/1.3,2013-09-06 17:10:00,
2013-09-07 05:15:00,50.0,46.0,30.09,WSW,249,0.0,0.0,85,0.00,,,-99.99,wx200d/1.3,2013-09-06 17:15:00,
2013-09-07 05:20:00,49.8,46.0,30.09,WSW,248,0.0,0.0,85,0.00,,,-99.99,wx200d/1.3,2013-09-06 17:20:00,
2013-09-07 05:25:00,49.8,46.0,30.09,WSW,248,0.0,0.0,85,0.00,,,-99.99,wx200d/1.3,2013-09-06 17:25:00,
2013-09-07 05:30:00,49.8,46.0,30.09,WSW,248,0.0,0.0,85,0.00,,,-99.99,wx200d/1.3,2013-09-06 17:30:00,
2013-09-07 05:35:00,49.8,46.0,30.09,WSW,248,0.0,0.0,85,0.00,,,-99.99,wx200d/1.3,2013-09-06 17:35:00,
2013-09-07 05:40:00,49.8,46.0,30.09,WSW,248,0.0,0.0,85,0.00,,,-99.99,wx200d/1.3,2013-09-06 17:40:00,
2013-09-07 05:45:00,49.8,46.0,30.09,WSW,248,0.0,0.0,85,0.00,,,-99.99,wx200d/1.3,2013-09-06 17:45:00,
2013-09-07 05:50:00,49.6,46.0,30.09,WSW,248,0.0,0.0,85,0.00,,,-99.99,wx200d/1.3,2013-09-06 17:50:00,
2013-09-07 05:55:00,49.6,46.0,30.09,WSW,249,0.0,0.0,85,0.00,,,-99.99,wx200d/1.3,2013-09-06 17:55:00,
2013-09-07 06:00:00,49.6,46.0,30.09,WSW,248,0.0,0.0,85,0.00,,,-99.99,wx200d/1.3,2013-09-06 18:00:00,
2013-09-07 06:05:00,49.6,46.0,30.09,WSW,248,0.0,0.0,85,0.00,,,-99.99,wx200d/1.3,2013-09-06 18:05:00,
2013-09-07 06:10:00,49.6,46.0,30.09,WSW,249,0.0,0.0,85,0.00,,,-99.99,wx200d/1.3,2013-09-06 18:10:00,
2013-09-07 06:15:00,49.8,46.0,30.09,WSW,248,0.0,0.0,85,0.00,,,-99.99,wx200d/1.3,2013-09-06 18:15:00,
2013-09-07 06:20:00,49.8,46.0,30.09,WSW,248,0.0,0.0,85,0.00,,,-99.99,wx200d/1.3,2013-09-06 18:20:00,
2013-09-07 06:25:00,50.0,46.0,30.09,WSW,248,0.0,0.0,85,0.00,,,-99.99,wx200d/1.3,2013-09-06 18:25:00,
2013-09-07 06:30:00,50.0,46.0,30.09,WSW,248,0.0,0.0,85,0.00,,,-99.99,wx200d/1.3,2013-09-06 18:30:00,
2013-09-07 06:35:00,50.0,46.0,30.09,WSW,248,0.0,0.0,85,0.00,,,-99.99,wx200d/1.3,2013-09-06 18:35:00,
2013-09-07 06:40:00,50.0,46.0,30.12,WSW,248,0.0,0.0,85,0.00,,,-99.99,wx200d/1.3,2013-09-06 18:40:00,
2013-09-07 06:45:00,50.2,46.0,30.12,WSW,248,0.0,0.0,85,0.00,,,-99.99,wx200d/1.3,2013-09-06 18:45:00,
2013-09-07 06:50:00,50.2,46.0,30.12,WSW,249,0.0,0.0,85,0.00,,,-99.99,wx200d/1.3,2013-09-06 18:50:00,
2013-09-07 06:55:00,50.4,46.0,30.12,WSW,248,0.0,0.0,86,0.00,,,-99.99,wx200d/1.3,2013-09-06 18:55:00,
2013-09-07 07:00:00,50.5,46.0,30.12,NNE,26,0.0,0.0,86,0.00,,,-99.99,wx200d/1.3,2013-09-06 19:00:00,
2013-09-07 07:05:00,50.7,46.0,30.12,North,4,0.0,0.0,87,0.00,,,-99.99,wx200d/1.3,2013-09-06 19:05:00,
2013-09-07 07:10:00,51.1,48.0,30.12,North,7,0.0,0.0,87,0.00,,,-99.99,wx200d/1.3,2013-09-06 19:10:00,
2013-09-07 07:15:00,51.4,48.0,30.12,North,8,0.0,0.0,88,0.00,,,-99.99,wx200d/1.3,2013-09-06 19:15:00,
2013-09-07 07:20:00,51.6,48.0,30.12,WNW,299,2.7,3.1,88,0.00,,,-99.99,wx200d/1.3,2013-09-06 19:20:00,
2013-09-07 07:25:00,52.0,48.0,30.12,WNW,301,4.0,4.0,88,0.00,,,-99.99,wx200d/1.3,2013-09-06 19:25:00,
2013-09-07 07:30:00,52.5,48.0,30.12,NW,324,3.1,4.0,87,0.00,,,-99.99,wx200d/1.3,2013-09-06 19:30:00,
2013-09-07 07:35:00,52.7,50.0,30.12,NW,316,2.7,4.0,86,0.00,,,-99.99,wx200d/1.3,2013-09-06 19:35:00,
2013-09-07 07:40:00,53.1,50.0,30.12,North,351,0.0,0.0,85,0.00,,,-99.99,wx200d/1.3,2013-09-06 19:40:00,
2013-09-07 07:45:00,53.1,48.0,30.12,North,351,0.0,0.0,84,0.00,,,-99.99,wx200d/1.3,2013-09-06 19:45:00,
2013-09-07 07:50:00,53.2,48.0,30.12,NW,312,2.7,3.1,84,0.00,,,-99.99,wx200d/1.3,2013-09-06 19:50:00,
2013-09-07 07:55:00,53.4,48.0,30.12,NNW,335,3.6,4.5,84,0.00,,,-99.99,wx200d/1.3,2013-09-06 19:55:00,
2013-09-07 08:00:00,53.8,48.0,30.12,NNW,337,0.0,3.6,84,0.00,,,-99.99,wx200d/1.3,2013-09-06 20:00:00,
2013-09-07 08:06:00,54.0,48.0,30.12,NNE,28,0.0,0.0,83,0.00,,,-99.99,wx200d/1.3,2013-09-06 20:06:00,
2013-09-07 08:11:00,54.1,48.0,30.12,NNW,336,0.0,3.6,83,0.00,,,-99.99,wx200d/1.3,2013-09-06 20:11:00,
2013-09-07 08:16:00,54.5,50.0,30.12,NW,307,2.7,5.8,83,0.00,,,-99.99,wx200d/1.3,2013-09-06 20:16:00,
2013-09-07 08:21:00,54.7,50.0,30.12,West,271,0.0,0.0,82,0.00,,,-99.99,wx200d/1.3,2013-09-06 20:21:00,
2013-09-07 08:26:00,55.0,50.0,30.12,WSW,256,2.7,0.0,82,0.00,,,-99.99,wx200d/1.3,2013-09-06 20:26:00,
2013-09-07 08:31:00,55.4,50.0,30.12,WSW,243,0.0,2.7,82,0.00,,,-99.99,wx200d/1.3,2013-09-06 20:31:00,
2013-09-07 08:36:00,55.6,50.0,30.12,West,276,3.1,0.0,81,0.00,,,-99.99,wx200d/1.3,2013-09-06 20:36:00,
2013-09-07 08:41:00,55.6,50.0,30.12,West,271,2.7,3.1,80,0.00,,,-99.99,wx200d/1.3,2013-09-06 20:41:00,
2013-09-07 08:46:00,55.6,50.0,30.12,West,267,3.6,5.4,80,0.00,,,-99.99,wx200d/1.3,2013-09-06 20:46:00,
2013-09-07 08:51:00,55.6,48.0,30.12,WNW,286,3.1,3.1,79,0.00,,,-99.99,wx200d/1.3,2013-09-06 20:51:00,
2013-09-07 08:56:00,55.6,48.0,30.12,West,275,4.0,5.4,79,0.00,,,-99.99,wx200d/1.3,2013-09-06 20:56:00,
2013-09-07 09:01:00,55.6,50.0,30.12,WNW,287,3.1,3.6,80,0.00,,,-99.99,wx200d/1.3,2013-09-06 21:01:00,
2013-09-07 09:06:00,55.8,50.0,30.12,West,280,5.4,5.4,80,0.00,,,-99.99,wx200d/1.3,2013-09-06 21:06:00,
2013-09-07 09:11:00,55.9,50.0,30.12,WSW,255,3.6,5.4,80,0.00,,,-99.99,wx200d/1.3,2013-09-06 21:11:00,
2013-09-07 09:16:00,56.1,50.0,30.12,West,268,2.7,7.4,80,0.00,,,-99.99,wx200d/1.3,2013-09-06 21:16:00,
2013-09-07 09:22:00,56.3,50.0,30.12,WSW,251,4.5,4.5,79,0.00,,,-99.99,wx200d/1.3,2013-09-06 21:22:00,
2013-09-07 09:27:00,56.5,50.0,30.12,WNW,285,3.6,0.0,78,0.00,,,-99.99,wx200d/1.3,2013-09-06 21:27:00,
2013-09-07 09:32:00,56.8,50.0,30.12,WSW,241,4.9,5.4,78,0.00,,,-99.99,wx200d/1.3,2013-09-06 21:32:00,
2013-09-07 09:38:00,57.2,50.0,30.12,SW,229,6.7,6.7,77,0.00,,,-99.99,wx200d/1.3,2013-09-06 21:38:00,
2013-09-07 09:43:00,57.0,48.0,30.12,WSW,255,6.3,6.3,74,0.00,,,-99.99,wx200d/1.3,2013-09-06 21:43:00,
2013-09-07 09:48:00,56.7,50.0,30.12,West,276,5.4,5.4,77,0.00,,,-99.99,wx200d/1.3,2013-09-06 21:48:00,
2013-09-07 09:53:00,56.7,50.0,30.12,WNW,298,5.8,6.3,79,0.00,,,-99.99,wx200d/1.3,2013-09-06 21:53:00,
2013-09-07 09:58:00,57.0,52.0,30.12,West,266,4.5,4.9,80,0.00,,,-99.99,wx200d/1.3,2013-09-06 21:58:00,
2013-09-07 10:03:00,57.6,52.0,30.12,SSW,207,3.6,5.8,80,0.00,,,-99.99,wx200d/1.3,2013-09-06 22:03:00,
2013-09-07 10:08:00,57.7,52.0,30.12,West,260,5.4,5.4,80,0.00,,,-99.99,wx200d/1.3,2013-09-06 22:08:00,
2013-09-07 10:13:00,57.9,50.0,30.12,SW,233,4.5,4.5,79,0.00,,,-99.99,wx200d/1.3,2013-09-06 22:13:00,
2013-09-07 10:18:00,57.9,50.0,30.12,WNW,285,6.3,8.7,78,0.00,,,-99.99,wx200d/1.3,2013-09-06 22:18:00,
2013-09-07 10:23:00,58.5,52.0,30.12,SW,233,3.6,7.8,77,0.00,,,-99.99,wx200d/1.3,2013-09-06 22:23:00,
2013-09-07 10:28:00,59.9,54.0,30.12,WSW,243,5.8,5.8,77,0.00,,,-99.99,wx200d/1.3,2013-09-06 22:28:00,
2013-09-07 10:33:00,61.7,54.0,30.12,SW,235,6.3,7.4,70,0.00,,,-99.99,wx200d/1.3,2013-09-06 22:33:00,
2013-09-07 10:38:00,63.1,52.0,30.12,SW,223,6.3,6.3,68,0.00,,,-99.99,wx200d/1.3,2013-09-06 22:38:00,
2013-09-07 10:43:00,63.3,48.0,30.12,SW,229,8.3,8.3,61,0.00,,,-99.99,wx200d/1.3,2013-09-06 22:43:00,
2013-09-07 10:48:00,63.7,52.0,30.12,SW,220,4.9,4.9,64,0.00,,,-99.99,wx200d/1.3,2013-09-06 22:48:00,
2013-09-07 10:53:00,63.1,48.0,30.12,West,275,6.7,6.7,61,0.00,,,-99.99,wx200d/1.3,2013-09-06 22:53:00,
2013-09-07 10:58:00,62.6,50.0,30.12,SW,224,4.5,4.5,62,0.00,,,-99.99,wx200d/1.3,2013-09-06 22:58:00,
2013-09-07 11:03:00,62.6,50.0,30.12,West,260,5.4,0.0,62,0.00,,,-99.99,wx200d/1.3,2013-09-06 23:03:00,
2013-09-07 11:08:00,62.2,50.0,30.12,SW,233,6.7,6.9,62,0.00,,,-99.99,wx200d/1.3,2013-09-06 23:08:00,
2013-09-07 11:13:00,61.7,50.0,30.12,SW,236,5.4,5.4,64,0.00,,,-99.99,wx200d/1.3,2013-09-06 23:13:00,
2013-09-07 11:18:00,62.1,52.0,30.12,NW,315,4.9,7.8,67,0.00,,,-99.99,wx200d/1.3,2013-09-06 23:18:00,
2013-09-07 11:23:00,62.2,52.0,30.12,WSW,243,5.8,7.4,66,0.00,,,-99.99,wx200d/1.3,2013-09-06 23:23:00,
2013-09-07 11:28:00,62.2,52.0,30.12,SW,228,4.0,8.3,66,0.00,,,-99.99,wx200d/1.3,2013-09-06 23:28:00,
2013-09-07 11:33:00,61.5,50.0,30.12,SW,214,6.7,6.7,66,0.00,,,-99.99,wx200d/1.3,2013-09-06 23:33:00,
2013-09-07 11:38:00,61.5,50.0,30.12,WNW,282,5.4,8.3,68,0.00,,,-99.99,wx200d/1.3,2013-09-06 23:38:00,
2013-09-07 11:43:00,61.3,50.0,30.12,West,279,5.4,6.3,69,0.00,,,-99.99,wx200d/1.3,2013-09-06 23:43:00,
2013-09-07 11:48:00,61.5,52.0,30.12,West,271,5.4,5.4,70,0.00,,,-99.99,wx200d/1.3,2013-09-06 23:48:00,
2013-09-07 11:53:00,61.3,52.0,30.09,SSW,209,5.8,5.8,70,0.00,,,-99.99,wx200d/1.3,2013-09-06 23:53:00,
2013-09-07 11:58:00,61.2,50.0,30.09,West,266,8.7,8.7,69,0.00,,,-99.99,wx200d/1.3,2013-09-06 23:58:00,
2013-09-07 12:03:00,60.6,52.0,30.09,West,280,7.4,7.4,72,0.00,,,-99.99,wx200d/1.3,2013-09-07 00:03:00,
2013-09-07 12:08:00,60.4,52.0,30.09,WSW,254,6.3,6.3,73,0.00,,,-99.99,wx200d/1.3,2013-09-07 00:08:00,
2013-09-07 12:13:00,60.3,52.0,30.09,WSW,251,6.9,6.9,73,0.00,,,-99.99,wx200d/1.3,2013-09-07 00:13:00,
2013-09-07 12:18:00,60.3,52.0,30.09,West,277,5.8,5.8,73,0.00,,,-99.99,wx200d/1.3,2013-09-07 00:18:00,
2013-09-07 12:23:00,60.4,52.0,30.09,West,279,6.3,6.3,73,0.00,,,-99.99,wx200d/1.3,2013-09-07 00:23:00,
2013-09-07 12:28:00,60.8,52.0,30.09,WSW,245,7.4,7.4,73,0.00,,,-99.99,wx200d/1.3,2013-09-07 00:28:00,
2013-09-07 12:33:00,61.2,52.0,30.09,WNW,290,7.4,7.4,74,0.00,,,-99.99,wx200d/1.3,2013-09-07 00:33:00,
2013-09-07 12:38:00,60.8,52.0,30.09,WSW,247,6.3,6.9,73,0.00,,,-99.99,wx200d/1.3,2013-09-07 00:38:00,
2013-09-07 12:43:00,60.8,52.0,30.09,WNW,289,6.3,6.3,74,0.00,,,-99.99,wx200d/1.3,2013-09-07 00:43:00,
2013-09-07 12:48:00,60.8,54.0,30.09,WNW,286,6.9,6.9,76,0.00,,,-99.99,wx200d/1.3,2013-09-07 00:48:00,
2013-09-07 12:53:00,61.0,54.0,30.09,SW,228,5.8,5.8,76,0.00,,,-99.99,wx200d/1.3,2013-09-07 00:53:00,
2013-09-07 12:58:00,61.7,55.0,30.09,SW,216,6.9,6.9,77,0.00,,,-99.99,wx200d/1.3,2013-09-07 00:58:00,
2013-09-07 13:03:00,62.6,54.0,30.09,WSW,255,7.4,7.4,74,0.00,,,-99.99,wx200d/1.3,2013-09-07 01:03:00,
2013-09-07 13:08:00,63.5,55.0,30.09,WNW,286,7.8,7.8,72,0.00,,,-99.99,wx200d/1.3,2013-09-07 01:08:00,
2013-09-07 13:13:00,64.8,54.0,30.09,West,277,7.4,12.5,69,0.00,,,-99.99,wx200d/1.3,2013-09-07 01:13:00,
2013-09-07 13:18:00,65.7,55.0,30.09,SW,220,8.3,8.3,65,0.00,,,-99.99,wx200d/1.3,2013-09-07 01:18:00,
2013-09-07 13:23:00,66.0,54.0,30.06,East,93,6.9,6.9,62,0.00,,,-99.99,wx200d/1.3,2013-09-07 01:23:00,
2013-09-07 13:28:00,66.6,52.0,30.06,WNW,290,8.3,9.2,59,0.00,,,-99.99,wx200d/1.3,2013-09-07 01:28:00,
2013-09-07 13:33:00,67.1,52.0,30.06,WSW,247,6.9,6.9,56,0.00,,,-99.99,wx200d/1.3,2013-09-07 01:33:00,
2013-09-07 13:38:00,66.9,50.0,30.06,WSW,239,5.4,5.4,55,0.00,,,-99.99,wx200d/1.3,2013-09-07 01:38:00,
2013-09-07 13:43:00,66.4,50.0,30.06,SSW,200,6.9,6.9,54,0.00,,,-99.99,wx200d/1.3,2013-09-07 01:43:00,
2013-09-07 13:48:00,67.1,50.0,30.06,SW,230,6.9,6.9,54,0.00,,,-99.99,wx200d/1.3,2013-09-07 01:48:00,
2013-09-07 13:53:00,66.0,50.0,30.06,WSW,249,6.3,6.3,56,0.00,,,-99.99,wx200d/1.3,2013-09-07 01:53:00,
2013-09-07 13:58:00,64.9,50.0,30.06,West,271,7.4,7.4,59,0.00,,,-99.99,wx200d/1.3,2013-09-07 01:58:00,
2013-09-07 14:03:00,64.0,52.0,30.06,WSW,253,4.9,5.4,62,0.00,,,-99.99,wx200d/1.3,2013-09-07 02:03:00,
2013-09-07 14:08:00,64.0,52.0,30.06,SW,226,4.9,4.9,63,0.00,,,-99.99,wx200d/1.3,2013-09-07 02:08:00,
2013-09-07 14:13:00,64.2,52.0,30.06,West,279,4.5,6.3,63,0.00,,,-99.99,wx200d/1.3,2013-09-07 02:13:00,
2013-09-07 14:18:00,63.7,52.0,30.06,WSW,248,4.0,6.3,62,0.00,,,-99.99,wx200d/1.3,2013-09-07 02:18:00,
2013-09-07 14:23:00,63.1,48.0,30.06,WSW,240,6.3,6.3,61,0.00,,,-99.99,wx200d/1.3,2013-09-07 02:23:00,
2013-09-07 14:28:00,63.1,50.0,30.06,West,260,5.4,9.6,62,0.00,,,-99.99,wx200d/1.3,2013-09-07 02:28:00,
2013-09-07 14:33:00,63.0,50.0,30.06,SW,214,4.5,4.5,63,0.00,,,-99.99,wx200d/1.3,2013-09-07 02:33:00,
2013-09-07 14:38:00,62.6,48.0,30.06,West,279,6.7,6.7,61,0.00,,,-99.99,wx200d/1.3,2013-09-07 02:38:00,
2013-09-07 14:43:00,62.8,50.0,30.06,SSW,209,4.5,11.0,62,0.00,,,-99.99,wx200d/1.3,2013-09-07 02:43:00,
2013-09-07 14:48:00,62.4,50.0,30.06,WSW,243,4.9,4.9,62,0.00,,,-99.99,wx200d/1.3,2013-09-07 02:48:00,
2013-09-07 14:53:00,62.2,50.0,30.06,WSW,256,4.9,4.9,63,0.00,,,-99.99,wx200d/1.3,2013-09-07 02:53:00,
2013-09-07 14:58:00,61.9,50.0,30.06,West,277,3.6,3.6,65,0.00,,,-99.99,wx200d/1.3,2013-09-07 02:58:00,
2013-09-07 15:03:00,61.7,50.0,30.06,WNW,282,5.4,5.8,64,0.00,,,-99.99,wx200d/1.3,2013-09-07 03:03:00,
2013-09-07 15:08:00,61.2,48.0,30.03,WSW,247,7.8,9.6,63,0.00,,,-99.99,wx200d/1.3,2013-09-07 03:08:00,
2013-09-07 15:13:00,61.0,48.0,30.03,West,279,5.8,5.8,65,0.00,,,-99.99,wx200d/1.3,2013-09-07 03:13:00,
2013-09-07 15:18:00,60.8,50.0,30.03,WSW,246,6.3,6.3,66,0.00,,,-99.99,wx200d/1.3,2013-09-07 03:18:00,
2013-09-07 15:23:00,60.6,50.0,30.06,West,266,5.8,5.8,68,0.00,,,-99.99,wx200d/1.3,2013-09-07 03:23:00,
2013-09-07 15:28:00,60.3,50.0,30.06,SW,222,3.6,3.6,70,0.00,,,-99.99,wx200d/1.3,2013-09-07 03:28:00,
2013-09-07 15:33:00,59.9,52.0,30.06,WNW,283,6.9,6.9,73,0.00,,,-99.99,wx200d/1.3,2013-09-07 03:33:00,
2013-09-07 15:38:00,59.4,52.0,30.03,SW,229,5.8,7.8,75,0.00,,,-99.99,wx200d/1.3,2013-09-07 03:38:00,
2013-09-07 15:43:00,59.2,52.0,30.03,SW,231,5.8,6.7,77,0.00,,,-99.99,wx200d/1.3,2013-09-07 03:43:00,
2013-09-07 15:48:00,59.0,52.0,30.03,West,275,5.4,5.4,79,0.00,,,-99.99,wx200d/1.3,2013-09-07 03:48:00,
2013-09-07 15:53:00,58.8,54.0,30.06,WNW,289,4.9,6.3,80,0.00,,,-99.99,wx200d/1.3,2013-09-07 03:53:00,
2013-09-07 15:58:00,58.8,54.0,30.06,SW,227,5.8,6.3,81,0.00,,,-99.99,wx200d/1.3,2013-09-07 03:58:00,
2013-09-07 16:01:00,58.8,54.0,30.06,SW,229,4.9,5.4,81,0.00,,,-99.99,wx200d/1.3,2013-09-07 04:01:00,
2013-09-07 16:02:00,58.8,54.0,30.06,West,259,5.8,5.8,81,0.00,,,-99.99,wx200d/1.3,2013-09-07 04:02:00,
2013-09-07 16:03:00,58.8,54.0,30.06,WSW,256,4.9,5.4,81,0.00,,,-99.99,wx200d/1.3,2013-09-07 04:03:00,
2013-09-07 16:06:00,58.8,54.0,30.06,WSW,254,7.4,7.4,81,0.00,,,-99.99,wx200d/1.3,2013-09-07 04:06:00,
2013-09-07 16:10:00,58.8,54.0,30.06,West,267,6.3,6.3,81,0.00,,,-99.99,wx200d/1.3,2013-09-07 04:10:00,
2013-09-07 16:16:00,58.8,54.0,30.06,NNW,327,6.9,6.9,81,0.00,,,-99.99,wx200d/1.3,2013-09-07 04:16:00,
2013-09-07 16:21:00,58.8,54.0,30.06,SW,224,5.8,5.8,81,0.00,,,-99.99,wx200d/1.3,2013-09-07 04:21:00,
2013-09-07 16:23:00,58.8,54.0,30.06,West,263,6.9,6.9,81,0.00,,,-99.99,wx200d/1.3,2013-09-07 04:23:00,
2013-09-07 16:28:00,58.8,54.0,30.06,SW,223,4.5,6.3,81,0.00,,,-99.99,wx200d/1.3,2013-09-07 04:28:00,
2013-09-07 16:33:00,59.0,54.0,30.06,WSW,245,6.7,7.4,80,0.00,,,-99.99,wx200d/1.3,2013-09-07 04:33:00,
2013-09-07 16:38:00,59.4,52.0,30.06,WSW,239,5.4,6.7,79,0.00,,,-99.99,wx200d/1.3,2013-09-07 04:38:00,
2013-09-07 16:43:00,59.7,52.0,30.06,SW,227,6.7,6.7,79,0.00,,,-99.99,wx200d/1.3,2013-09-07 04:43:00,
2013-09-07 16:48:00,59.9,54.0,30.06,West,279,8.3,8.3,77,0.00,,,-99.99,wx200d/1.3,2013-09-07 04:48:00,
2013-09-07 16:53:00,60.1,52.0,30.06,SW,224,6.9,6.9,74,0.00,,,-99.99,wx200d/1.3,2013-09-07 04:53:00,
2013-09-07 16:58:00,60.3,52.0,30.06,West,278,8.3,8.3,72,0.00,,,-99.99,wx200d/1.3,2013-09-07 04:58:00,
2013-09-07 17:03:00,60.1,52.0,30.06,SW,223,7.4,7.4,71,0.00,,,-99.99,wx200d/1.3,2013-09-07 05:03:00,
2013-09-07 17:08:00,59.7,50.0,30.06,WNW,286,6.7,6.7,71,0.00,,,-99.99,wx200d/1.3,2013-09-07 05:08:00,
2013-09-07 17:13:00,59.4,50.0,30.06,WSW,242,8.7,8.7,71,0.00,,,-99.99,wx200d/1.3,2013-09-07 05:13:00,
2013-09-07 17:18:00,59.2,50.0,30.06,SW,230,6.9,6.9,71,0.00,,,-99.99,wx200d/1.3,2013-09-07 05:18:00,
2013-09-07 17:23:00,59.2,50.0,30.06,WSW,240,6.3,6.3,71,0.00,,,-99.99,wx200d/1.3,2013-09-07 05:23:00,
2013-09-07 17:28:00,59.0,50.0,30.06,WSW,237,4.9,6.3,72,0.00,,,-99.99,wx200d/1.3,2013-09-07 05:28:00,
2013-09-07 17:33:00,58.8,50.0,30.06,WSW,238,6.3,6.3,72,0.00,,,-99.99,wx200d/1.3,2013-09-07 05:33:00,
2013-09-07 17:38:00,58.6,50.0,30.03,WSW,245,5.8,5.8,72,0.00,,,-99.99,wx200d/1.3,2013-09-07 05:38:00,
2013-09-07 17:43:00,58.5,50.0,30.03,SW,234,5.8,6.3,71,0.00,,,-99.99,wx200d/1.3,2013-09-07 05:43:00,
2013-09-07 17:48:00,58.3,50.0,30.03,SW,218,6.3,7.8,71,0.00,,,-99.99,wx200d/1.3,2013-09-07 05:48:00,
2013-09-07 17:53:00,58.1,50.0,30.06,West,278,4.9,4.9,71,0.00,,,-99.99,wx200d/1.3,2013-09-07 05:53:00,
2013-09-07 17:58:00,58.1,50.0,30.06,SW,228,5.4,5.4,71,0.00,,,-99.99,wx200d/1.3,2013-09-07 05:58:00,
2013-09-07 18:03:00,57.9,48.0,30.06,WSW,257,5.4,5.4,71,0.00,,,-99.99,wx200d/1.3,2013-09-07 06:03:00,
2013-09-07 18:08:00,57.9,48.0,30.06,SW,216,4.0,4.0,71,0.00,,,-99.99,wx200d/1.3,2013-09-07 06:08:00,
2013-09-07 18:13:00,57.9,48.0,30.06,WSW,243,0.0,0.0,71,0.00,,,-99.99,wx200d/1.3,2013-09-07 06:13:00,
2013-09-07 18:18:00,57.9,48.0,30.06,WSW,241,0.0,3.6,71,0.00,,,-99.99,wx200d/1.3,2013-09-07 06:18:00,
2013-09-07 18:23:00,57.7,48.0,30.06,WSW,247,4.0,5.8,72,0.00,,,-99.99,wx200d/1.3,2013-09-07 06:23:00,
2013-09-07 18:28:00,57.6,48.0,30.06,West,262,3.1,0.0,72,0.00,,,-99.99,wx200d/1.3,2013-09-07 06:28:00,
2013-09-07 18:33:00,57.6,48.0,30.06,WSW,250,0.0,0.0,72,0.00,,,-99.99,wx200d/1.3,2013-09-07 06:33:00,
2013-09-07 18:38:00,57.6,48.0,30.06,WSW,250,0.0,3.1,72,0.00,,,-99.99,wx200d/1.3,2013-09-07 06:38:00,
2013-09-07 18:43:00,57.4,48.0,30.06,WSW,250,0.0,0.0,72,0.00,,,-99.99,wx200d/1.3,2013-09-07 06:43:00,
2013-09-07 18:48:00,57.4,48.0,30.06,WSW,250,0.0,0.0,72,0.00,,,-99.99,wx200d/1.3,2013-09-07 06:48:00,
2013-09-07 18:53:00,57.2,48.0,30.03,WSW,250,0.0,0.0,73,0.00,,,-99.99,wx200d/1.3,2013-09-07 06:53:00,
2013-09-07 18:58:00,57.2,48.0,30.03,WNW,290,0.0,0.0,73,0.00,,,-99.99,wx200d/1.3,2013-09-07 06:58:00,
2013-09-07 19:03:00,57.2,48.0,30.03,WNW,289,0.0,0.0,73,0.00,,,-99.99,wx200d/1.3,2013-09-07 07:03:00,
2013-09-07 19:08:00,57.2,48.0,30.03,WNW,289,0.0,0.0,73,0.00,,,-99.99,wx200d/1.3,2013-09-07 07:08:00,
2013-09-07 19:13:00,57.0,48.0,30.03,WSW,256,0.0,0.0,74,0.00,,,-99.99,wx200d/1.3,2013-09-07 07:13:00,
2013-09-07 19:18:00,57.0,48.0,30.03,WSW,256,0.0,0.0,74,0.00,,,-99.99,wx200d/1.3,2013-09-07 07:18:00,
2013-09-07 19:23:00,57.0,48.0,30.03,WSW,256,0.0,0.0,74,0.00,,,-99.99,wx200d/1.3,2013-09-07 07:23:00,
2013-09-07 19:28:00,57.0,48.0,30.03,WSW,256,0.0,0.0,74,0.00,,,-99.99,wx200d/1.3,2013-09-07 07:28:00,
2013-09-07 19:33:00,57.0,48.0,30.03,WSW,256,0.0,0.0,74,0.00,,,-99.99,wx200d/1.3,2013-09-07 07:33:00,
2013-09-07 19:38:00,57.0,48.0,30.03,WSW,256,0.0,0.0,74,0.00,,,-99.99,wx200d/1.3,2013-09-07 07:38:00,
2013-09-07 19:43:00,57.0,48.0,30.03,WSW,256,0.0,0.0,75,0.00,,,-99.99,wx200d/1.3,2013-09-07 07:43:00,
2013-09-07 19:48:00,56.8,50.0,30.03,WSW,256,0.0,0.0,76,0.00,,,-99.99,wx200d/1.3,2013-09-07 07:48:00,
2013-09-07 19:53:00,56.8,50.0,30.03,WNW,286,0.0,0.0,77,0.00,,,-99.99,wx200d/1.3,2013-09-07 07:53:00,
2013-09-07 19:58:00,56.8,50.0,30.03,WNW,288,4.5,4.9,79,0.00,,,-99.99,wx200d/1.3,2013-09-07 07:58:00,
2013-09-07 20:03:00,56.8,52.0,30.03,West,266,2.7,4.9,81,0.00,,,-99.99,wx200d/1.3,2013-09-07 08:03:00,
2013-09-07 20:08:00,56.8,52.0,30.03,WSW,257,2.7,0.0,82,0.00,,,-99.99,wx200d/1.3,2013-09-07 08:08:00,
2013-09-07 20:13:00,56.8,52.0,30.03,West,274,2.7,3.1,83,0.00,,,-99.99,wx200d/1.3,2013-09-07 08:13:00,
2013-09-07 20:18:00,56.8,52.0,30.03,WNW,286,3.1,3.6,84,0.00,,,-99.99,wx200d/1.3,2013-09-07 08:18:00,
2013-09-07 20:23:00,56.7,54.0,30.03,WNW,294,3.6,0.0,85,0.00,,,-99.99,wx200d/1.3,2013-09-07 08:23:00,
2013-09-07 20:28:00,56.7,54.0,30.03,West,277,0.0,0.0,86,0.00,,,-99.99,wx200d/1.3,2013-09-07 08:28:00,
2013-09-07 20:33:00,56.5,54.0,30.03,West,277,0.0,0.0,86,0.00,,,-99.99,wx200d/1.3,2013-09-07 08:33:00,
2013-09-07 20:38:00,56.5,54.0,30.03,West,277,0.0,0.0,87,0.00,,,-99.99,wx200d/1.3,2013-09-07 08:38:00,
2013-09-07 20:43:00,56.5,54.0,30.03,West,278,0.0,0.0,87,0.00,,,-99.99,wx200d/1.3,2013-09-07 08:43:00,
2013-09-07 20:48:00,56.7,54.0,30.03,West,277,0.0,2.7,87,0.00,,,-99.99,wx200d/1.3,2013-09-07 08:48:00,
2013-09-07 20:53:00,56.5,54.0,30.03,West,277,0.0,0.0,88,0.00,,,-99.99,wx200d/1.3,2013-09-07 08:53:00,
2013-09-07 20:58:00,56.7,54.0,30.03,West,277,0.0,0.0,88,0.00,,,-99.99,wx200d/1.3,2013-09-07 08:58:00,
2013-09-07 21:03:00,56.7,54.0,30.03,NW,317,0.0,0.0,89,0.00,,,-99.99,wx200d/1.3,2013-09-07 09:03:00,
2013-09-07 21:08:00,56.5,54.0,30.03,North,5,0.0,2.7,89,0.00,,,-99.99,wx200d/1.3,2013-09-07 09:08:00,
2013-09-07 21:13:00,56.5,54.0,30.03,NE,47,0.0,0.0,90,0.00,,,-99.99,wx200d/1.3,2013-09-07 09:13:00,
2013-09-07 21:18:00,56.5,55.0,30.03,WNW,297,0.0,3.1,91,0.00,,,-99.99,wx200d/1.3,2013-09-07 09:18:00,
2013-09-07 21:23:00,56.5,55.0,30.03,NW,304,0.0,4.0,91,0.00,,,-99.99,wx200d/1.3,2013-09-07 09:23:00,
2013-09-07 21:28:00,56.5,55.0,30.03,WNW,291,3.6,3.6,92,0.00,,,-99.99,wx200d/1.3,2013-09-07 09:28:00,
2013-09-07 21:33:00,56.5,55.0,30.03,WNW,298,2.7,0.0,92,0.00,,,-99.99,wx200d/1.3,2013-09-07 09:33:00,
2013-09-07 21:38:00,56.7,55.0,30.00,WNW,298,3.1,3.6,92,0.04,,,-99.99,wx200d/1.3,2013-09-07 09:38:00,
2013-09-07 21:43:00,56.7,55.0,30.00,WNW,286,4.0,4.0,93,0.04,,,-99.99,wx200d/1.3,2013-09-07 09:43:00,
2013-09-07 21:48:00,56.7,55.0,30.00,WNW,287,3.6,4.5,93,0.04,,,-99.99,wx200d/1.3,2013-09-07 09:48:00,
2013-09-07 21:53:00,56.7,55.0,30.00,West,260,3.6,4.0,94,0.04,,,-99.99,wx200d/1.3,2013-09-07 09:53:00,
2013-09-07 21:58:00,56.7,55.0,30.00,West,263,0.0,0.0,94,0.04,,,-99.99,wx200d/1.3,2013-09-07 09:58:00,
2013-09-07 22:03:00,56.8,55.0,30.00,SW,233,0.0,3.6,94,0.04,,,-99.99,wx200d/1.3,2013-09-07 10:03:00,
2013-09-07 22:08:00,57.0,55.0,30.00,West,261,4.5,4.5,94,0.04,,,-99.99,wx200d/1.3,2013-09-07 10:08:00,
2013-09-07 22:13:00,57.0,55.0,30.00,WSW,256,4.5,4.5,94,0.04,,,-99.99,wx200d/1.3,2013-09-07 10:13:00,
2013-09-07 22:18:00,57.2,55.0,30.00,WSW,238,4.9,4.9,95,0.04,,,-99.99,wx200d/1.3,2013-09-07 10:18:00,
2013-09-07 22:23:00,57.2,55.0,30.00,WSW,246,4.5,7.8,95,0.04,,,-99.99,wx200d/1.3,2013-09-07 10:23:00,
2013-09-07 22:28:00,57.2,55.0,30.00,SW,233,5.4,5.4,95,0.04,,,-99.99,wx200d/1.3,2013-09-07 10:28:00,
2013-09-07 22:33:00,57.4,55.0,30.00,WSW,239,4.0,5.8,95,0.04,,,-99.99,wx200d/1.3,2013-09-07 10:33:00,
2013-09-07 22:39:00,57.4,55.0,30.00,WNW,299,5.4,5.4,96,0.04,,,-99.99,wx200d/1.3,2013-09-07 10:39:00,
2013-09-07 22:44:00,57.4,55.0,30.00,WSW,239,4.9,0.0,96,0.04,,,-99.99,wx200d/1.3,2013-09-07 10:44:00,
2013-09-07 22:49:00,57.6,55.0,30.00,West,264,4.9,4.9,96,0.04,,,-99.99,wx200d/1.3,2013-09-07 10:49:00,
2013-09-07 22:54:00,57.6,55.0,30.00,WNW,288,3.6,4.9,96,0.04,,,-99.99,wx200d/1.3,2013-09-07 10:54:00,
2013-09-07 22:59:00,57.6,55.0,30.00,West,280,4.5,4.5,96,0.04,,,-99.99,wx200d/1.3,2013-09-07 10:59:00,
2013-09-07 23:04:00,57.6,55.0,30.00,SW,222,6.9,6.9,96,0.04,,,-99.99,wx200d/1.3,2013-09-07 11:04:00,
2013-09-07 23:09:00,57.6,55.0,30.00,West,276,4.0,4.0,96,0.04,,,-99.99,wx200d/1.3,2013-09-07 11:09:00,
2013-09-07 23:14:00,57.6,55.0,30.00,West,262,4.5,4.9,96,0.04,,,-99.99,wx200d/1.3,2013-09-07 11:14:00,
2013-09-07 23:19:00,57.6,55.0,30.00,WSW,252,5.4,5.4,96,0.04,,,-99.99,wx200d/1.3,2013-09-07 11:19:00,
2013-09-07 23:24:00,57.6,55.0,30.00,SW,236,6.7,6.7,96,0.04,,,-99.99,wx200d/1.3,2013-09-07 11:24:00,
2013-09-07 23:29:00,57.6,55.0,30.00,WSW,256,5.4,5.4,96,0.04,,,-99.99,wx200d/1.3,2013-09-07 11:29:00,
2013-09-07 23:34:00,57.6,55.0,30.00,West,275,3.6,5.8,96,0.04,,,-99.99,wx200d/1.3,2013-09-07 11:34:00,
2013-09-07 23:39:00,57.6,55.0,30.00,West,262,5.4,5.4,96,0.04,,,-99.99,wx200d/1.3,2013-09-07 11:39:00,
2013-09-07 23:44:00,57.4,55.0,30.00,West,272,4.5,5.4,95,0.00,,,-99.99,wx200d/1.3,2013-09-07 11:44:00,
2013-09-07 23:49:00,57.4,55.0,30.00,West,264,3.1,6.9,95,0.00,,,-99.99,wx200d/1.3,2013-09-07 11:49:00,
2013-09-07 23:54:00,57.4,55.0,30.00,SW,236,3.1,4.5,95,0.00,,,-99.99,wx200d/1.3,2013-09-07 11:54:00,
2013-09-07 23:59:00,57.4,55.0,30.00,SW,232,3.6,4.0,95,0.00,,,-99.99,wx200d/1.3,2013-09-07 11:59:00,